Time,TemperatureF,DewpointF,PressureIn,WindDirection,WindDirectionDegrees,WindSpeedMPH,WindSpeedGustMPH,Humidity,HourlyPrecipIn,Conditions,Clouds,dailyrainin,SoftwareType,DateUTC
2013-01-29 00:07:00,41.6,41.0,29.56,WNW,302,0.0,-999.0,98,-99.99,,,0.00,weatherlink.com 1.10,2013-01-29 06:07:00,
2013-01-29 00:22:00,41.6,41.0,29.57,WNW,302,0.0,-999.0,98,-99.99,,,0.00,weatherlink.com 1.10,2013-01-29 06:22:00,
2013-01-29 00:37:00,41.8,41.0,29.58,WNW,284,0.0,-999.0,98,-99.99,,,0.00,weatherlink.com 1.10,2013-01-29 06:37:00,
2013-01-29 00:52:00,42.1,42.0,29.59,WNW,299,2.0,-999.0,98,-99.99,,,0.00,weatherlink.com 1.10,2013-01-29 06:52:00,
2013-01-29 01:07:00,41.9,41.0,29.59,NW,308,2.0,-999.0,98,-99.99,,,0.00,weatherlink.com 1.10,2013-01-29 07:07:00,
2013-01-29 01:22:00,41.4,41.0,29.60,NW,317,10.0,-999.0,98,-99.99,,,0.00,weatherlink.com 1.10,2013-01-29 07:22:00,
2013-01-29 02:22:00,38.2,38.0,29.63,NW,313,5.0,-999.0,97,-99.99,,,0.00,weatherlink.com 1.10,2013-01-29 08:22:00,
2013-01-29 03:18:00,36.7,36.0,29.64,NW,325,6.0,-999.0,97,-99.99,,,0.00,weatherlink.com 1.10,2013-01-29 09:18:00,
2013-01-29 03:38:00,36.4,36.0,29.64,NW,316,4.0,-999.0,97,-99.99,,,0.00,weatherlink.com 1.10,2013-01-29 09:38:00,
2013-01-29 03:53:00,36.1,35.0,29.64,NNW,335,1.0,-999.0,96,-99.99,,,0.00,weatherlink.com 1.10,2013-01-29 09:53:00,
2013-01-29 04:08:00,35.8,35.0,29.65,NNW,331,5.0,-999.0,96,-99.99,,,0.00,weatherlink.com 1.10,2013-01-29 10:08:00,
2013-01-29 04:23:00,35.1,34.0,29.65,WNW,290,3.0,-999.0,95,-99.99,,,0.00,weatherlink.com 1.10,2013-01-29 10:23:00,
2013-01-29 04:38:00,35.0,34.0,29.66,NW,309,0.0,-999.0,95,-99.99,,,0.00,weatherlink.com 1.10,2013-01-29 10:38:00,
2013-01-29 04:53:00,35.0,34.0,29.67,NW,308,1.0,-999.0,95,-99.99,,,0.00,weatherlink.com 1.10,2013-01-29 10:53:00,
2013-01-29 05:08:00,35.0,34.0,29.67,WNW,294,4.0,-999.0,95,-99.99,,,0.00,weatherlink.com 1.10,2013-01-29 11:08:00,
2013-01-29 05:23:00,34.9,33.0,29.66,NW,306,2.0,-999.0,94,-99.99,,,0.00,weatherlink.com 1.10,2013-01-29 11:23:00,
2013-01-29 05:38:00,34.8,33.0,29.66,NW,304,4.0,-999.0,94,-99.99,,,0.00,weatherlink.com 1.10,2013-01-29 11:38:00,
2013-01-29 05:53:00,34.7,33.0,29.65,NW,317,0.0,-999.0,94,-99.99,,,0.00,weatherlink.com 1.10,2013-01-29 11:53:00,
2013-01-29 06:08:00,34.6,33.0,29.65,NW,315,1.0,-999.0,94,-99.99,,,0.00,weatherlink.com 1.10,2013-01-29 12:08:00,
2013-01-29 06:23:00,34.5,33.0,29.64,NNW,337,0.0,-999.0,94,-99.99,,,0.00,weatherlink.com 1.10,2013-01-29 12:23:00,
2013-01-29 06:38:00,34.4,33.0,29.68,WNW,298,3.0,-999.0,94,-99.99,,,0.00,weatherlink.com 1.10,2013-01-29 12:38:00,
2013-01-29 06:53:00,34.3,33.0,29.68,NW,304,1.0,-999.0,94,-99.99,,,0.00,weatherlink.com 1.10,2013-01-29 12:53:00,
2013-01-29 07:08:00,34.2,32.0,29.68,WNW,300,7.0,-999.0,93,-99.99,,,0.00,weatherlink.com 1.10,2013-01-29 13:08:00,
2013-01-29 07:23:00,34.2,32.0,29.67,NW,308,1.0,-999.0,93,-99.99,,,0.00,weatherlink.com 1.10,2013-01-29 13:23:00,
2013-01-29 07:38:00,34.2,32.0,29.69,NW,322,1.0,-999.0,93,-99.99,,,0.00,weatherlink.com 1.10,2013-01-29 13:38:00,
2013-01-29 07:53:00,34.2,32.0,29.71,West,280,1.0,-999.0,93,-99.99,,,0.00,weatherlink.com 1.10,2013-01-29 13:53:00,
2013-01-29 08:08:00,34.2,32.0,29.72,WNW,291,0.0,-999.0,92,-99.99,,,0.00,weatherlink.com 1.10,2013-01-29 14:08:00,
2013-01-29 08:24:00,34.3,32.0,29.71,NW,314,4.0,-999.0,92,-99.99,,,0.00,weatherlink.com 1.10,2013-01-29 14:24:00,
2013-01-29 08:39:00,34.3,32.0,29.69,WNW,302,4.0,-999.0,92,-99.99,,,0.00,weatherlink.com 1.10,2013-01-29 14:39:00,
2013-01-29 08:54:00,34.2,32.0,29.69,WNW,292,2.0,-999.0,91,-99.99,,,0.00,weatherlink.com 1.10,2013-01-29 14:54:00,
2013-01-29 09:09:00,34.2,32.0,29.70,NNW,338,5.0,-999.0,91,-99.99,,,0.00,weatherlink.com 1.10,2013-01-29 15:09:00,
2013-01-29 09:24:00,34.3,32.0,29.71,NNW,338,9.0,-999.0,91,-99.99,,,0.00,weatherlink.com 1.10,2013-01-29 15:24:00,
2013-01-29 09:39:00,34.4,32.0,29.70,North,350,6.0,-999.0,91,-99.99,,,0.00,weatherlink.com 1.10,2013-01-29 15:39:00,
2013-01-29 09:54:00,34.5,32.0,29.70,NNW,342,8.0,-999.0,90,-99.99,,,0.00,weatherlink.com 1.10,2013-01-29 15:54:00,
2013-01-29 10:09:00,34.8,33.0,29.69,North,350,5.0,-999.0,91,-99.99,,,0.00,weatherlink.com 1.10,2013-01-29 16:09:00,
2013-01-29 10:24:00,34.7,32.0,29.70,NNW,346,6.0,-999.0,91,-99.99,,,0.00,weatherlink.com 1.10,2013-01-29 16:24:00,
2013-01-29 10:39:00,34.7,32.0,29.70,North,355,4.0,-999.0,91,-99.99,,,0.00,weatherlink.com 1.10,2013-01-29 16:39:00,
2013-01-29 10:54:00,34.6,32.0,29.70,North,349,6.0,-999.0,91,-99.99,,,0.00,weatherlink.com 1.10,2013-01-29 16:54:00,
2013-01-29 11:09:00,34.4,32.0,29.69,NNW,338,4.0,-999.0,91,-99.99,,,0.00,weatherlink.com 1.10,2013-01-29 17:09:00,
2013-01-29 11:24:00,34.3,32.0,29.69,North,355,9.0,-999.0,91,-99.99,,,0.00,weatherlink.com 1.10,2013-01-29 17:24:00,
2013-01-29 11:39:00,34.4,32.0,29.69,NNW,334,5.0,-999.0,91,-99.99,,,0.00,weatherlink.com 1.10,2013-01-29 17:39:00,
2013-01-29 11:54:00,34.4,32.0,29.68,North,355,5.0,-999.0,91,-99.99,,,0.00,weatherlink.com 1.10,2013-01-29 17:54:00,
2013-01-29 12:09:00,34.6,32.0,29.67,NW,325,3.0,-999.0,91,-99.99,,,0.00,weatherlink.com 1.10,2013-01-29 18:09:00,
2013-01-29 12:24:00,34.5,32.0,29.68,North,355,9.0,-999.0,91,-99.99,,,0.00,weatherlink.com 1.10,2013-01-29 18:24:00,
2013-01-29 12:39:00,34.5,32.0,29.67,North,360,10.0,-999.0,91,-99.99,,,0.00,weatherlink.com 1.10,2013-01-29 18:39:00,
2013-01-29 12:54:00,34.4,32.0,29.66,NNW,328,7.0,-999.0,91,-99.99,,,0.00,weatherlink.com 1.10,2013-01-29 18:54:00,
2013-01-29 13:09:00,34.1,32.0,29.66,North,351,9.0,-999.0,90,-99.99,,,0.00,weatherlink.com 1.10,2013-01-29 19:09:00,
2013-01-29 13:24:00,34.2,32.0,29.65,NNW,338,6.0,-999.0,91,-99.99,,,0.00,weatherlink.com 1.10,2013-01-29 19:24:00,
2013-01-29 13:39:00,34.1,32.0,29.64,North,350,7.0,-999.0,90,-99.99,,,0.00,weatherlink.com 1.10,2013-01-29 19:39:00,
2013-01-29 13:54:00,34.0,32.0,29.64,NNW,348,5.0,-999.0,91,-99.99,,,0.00,weatherlink.com 1.10,2013-01-29 19:54:00,
2013-01-29 14:09:00,34.3,32.0,29.64,NNW,327,7.0,-999.0,91,-99.99,,,0.00,weatherlink.com 1.10,2013-01-29 20:09:00,
2013-01-29 14:24:00,34.4,32.0,29.64,NNW,331,6.0,-999.0,91,-99.99,,,0.00,weatherlink.com 1.10,2013-01-29 20:24:00,
2013-01-29 14:39:00,34.6,32.0,29.64,North,5,9.0,-999.0,90,-99.99,,,0.00,weatherlink.com 1.10,2013-01-29 20:39:00,
2013-01-29 14:54:00,34.8,32.0,29.63,North,360,4.0,-999.0,90,-99.99,,,0.00,weatherlink.com 1.10,2013-01-29 20:54:00,
2013-01-29 15:09:00,35.0,32.0,29.64,North,355,9.0,-999.0,90,-99.99,,,0.00,weatherlink.com 1.10,2013-01-29 21:09:00,
2013-01-29 15:24:00,35.4,32.0,29.64,NNW,344,11.0,-999.0,88,-99.99,,,0.00,weatherlink.com 1.10,2013-01-29 21:24:00,
2013-01-29 15:39:00,35.3,32.0,29.63,North,355,11.0,-999.0,88,-99.99,,,0.00,weatherlink.com 1.10,2013-01-29 21:39:00,
2013-01-29 15:54:00,35.4,32.0,29.64,North,360,6.0,-999.0,88,-99.99,,,0.00,weatherlink.com 1.10,2013-01-29 21:54:00,
2013-01-29 16:09:00,35.4,32.0,29.66,NNW,344,8.0,-999.0,88,-99.99,,,0.00,weatherlink.com 1.10,2013-01-29 22:09:00,
2013-01-29 16:24:00,35.4,33.0,29.65,NNW,338,4.0,-999.0,89,-99.99,,,0.00,weatherlink.com 1.10,2013-01-29 22:24:00,
2013-01-29 16:39:00,35.5,32.0,29.63,NNW,347,8.0,-999.0,88,-99.99,,,0.00,weatherlink.com 1.10,2013-01-29 22:39:00,
2013-01-29 16:54:00,35.6,32.0,29.63,North,349,9.0,-999.0,88,-99.99,,,0.00,weatherlink.com 1.10,2013-01-29 22:54:00,
2013-01-29 17:09:00,35.7,33.0,29.65,North,350,3.0,-999.0,88,-99.99,,,0.00,weatherlink.com 1.10,2013-01-29 23:09:00,
2013-01-29 17:24:00,35.8,33.0,29.64,NNW,343,3.0,-999.0,88,-99.99,,,0.00,weatherlink.com 1.10,2013-01-29 23:24:00,
2013-01-29 17:39:00,36.0,33.0,29.66,North,5,8.0,-999.0,87,-99.99,,,0.00,weatherlink.com 1.10,2013-01-29 23:39:00,
2013-01-29 17:54:00,36.0,32.0,29.65,NNE,22,4.0,-999.0,86,-99.99,,,0.00,weatherlink.com 1.10,2013-01-29 23:54:00,
2013-01-29 18:09:00,35.9,32.0,29.67,North,355,5.0,-999.0,86,-99.99,,,0.00,weatherlink.com 1.10,2013-01-30 00:09:00,
2013-01-29 18:24:00,35.7,32.0,29.64,North,355,6.0,-999.0,87,-99.99,,,0.00,weatherlink.com 1.10,2013-01-30 00:24:00,
2013-01-29 18:38:00,35.7,32.0,29.65,North,350,5.0,-999.0,87,-99.99,,,0.00,weatherlink.com 1.10,2013-01-30 00:38:00,
2013-01-29 18:54:00,35.9,32.0,29.67,North,5,2.0,-999.0,87,-99.99,,,0.00,weatherlink.com 1.10,2013-01-30 00:54:00,
2013-01-29 19:09:00,35.7,32.0,29.66,North,349,6.0,-999.0,87,-99.99,,,0.00,weatherlink.com 1.10,2013-01-30 01:09:00,
2013-01-29 19:24:00,35.7,32.0,29.65,NNW,342,5.0,-999.0,86,-99.99,,,0.00,weatherlink.com 1.10,2013-01-30 01:24:00,
2013-01-29 19:39:00,35.8,32.0,29.65,NNW,336,5.0,-999.0,86,-99.99,,,0.00,weatherlink.com 1.10,2013-01-30 01:39:00,
2013-01-29 19:54:00,35.7,32.0,29.68,NW,321,4.0,-999.0,87,-99.99,,,0.00,weatherlink.com 1.10,2013-01-30 01:54:00,
2013-01-29 20:09:00,35.8,32.0,29.68,NNW,343,4.0,-999.0,87,-99.99,,,0.00,weatherlink.com 1.10,2013-01-30 02:09:00,
2013-01-29 20:24:00,35.7,33.0,29.71,NNW,339,5.0,-999.0,89,-99.99,,,0.00,weatherlink.com 1.10,2013-01-30 02:24:00,
2013-01-29 20:39:00,35.6,33.0,29.70,NNW,346,11.0,-999.0,89,-99.99,,,0.00,weatherlink.com 1.10,2013-01-30 02:39:00,
2013-01-29 20:54:00,35.4,33.0,29.68,North,351,5.0,-999.0,89,-99.99,,,0.00,weatherlink.com 1.10,2013-01-30 02:54:00,
2013-01-29 21:09:00,35.2,32.0,29.65,North,349,11.0,-999.0,88,-99.99,,,0.00,weatherlink.com 1.10,2013-01-30 03:09:00,
2013-01-29 21:24:00,35.1,32.0,29.66,NNW,348,15.0,-999.0,88,-99.99,,,0.00,weatherlink.com 1.10,2013-01-30 03:24:00,
2013-01-29 21:39:00,35.0,32.0,29.66,North,355,18.0,-999.0,87,-99.99,,,0.00,weatherlink.com 1.10,2013-01-30 03:39:00,
2013-01-29 21:54:00,34.7,31.0,29.63,North,355,16.0,-999.0,87,-99.99,,,0.00,weatherlink.com 1.10,2013-01-30 03:54:00,
2013-01-29 22:09:00,34.5,31.0,29.66,North,360,17.0,-999.0,87,-99.99,,,0.00,weatherlink.com 1.10,2013-01-30 04:09:00,
2013-01-29 22:24:00,34.3,31.0,29.66,NNW,346,9.0,-999.0,88,-99.99,,,0.00,weatherlink.com 1.10,2013-01-30 04:24:00,
2013-01-29 22:39:00,34.0,31.0,29.68,NNW,345,7.0,-999.0,88,-99.99,,,0.00,weatherlink.com 1.10,2013-01-30 04:39:00,
2013-01-29 22:54:00,33.8,31.0,29.65,NNW,332,13.0,-999.0,88,-99.99,,,0.00,weatherlink.com 1.10,2013-01-30 04:54:00,
2013-01-29 23:09:00,33.6,31.0,29.66,North,5,13.0,-999.0,89,-99.99,,,0.00,weatherlink.com 1.10,2013-01-30 05:09:00,
2013-01-29 23:24:00,33.2,31.0,29.67,North,355,10.0,-999.0,90,-99.99,,,0.00,weatherlink.com 1.10,2013-01-30 05:24:00,
2013-01-29 23:39:00,32.5,30.0,29.66,West,262,6.0,-999.0,91,-99.99,,,0.00,weatherlink.com 1.10,2013-01-30 05:39:00,
2013-01-29 23:54:00,31.9,30.0,29.63,NW,319,6.0,-999.0,92,-99.99,,,0.00,weatherlink.com 1.10,2013-01-30 05:54:00,